Regional Weather Roundup
Issued by NWS

Home | Current Version | Previous Version | Graphics & Text | Print | Product List | Glossary On
Versions: 1 2 3 4 5 6 7 8 9 10 11 12 13 14 15 16 17 18 19 20 21 22 23 24 25 26 27 28 29 30 31 32 33 34 35 36 37 38 39 40 41 42 43 44 45 46 47 48 49 50
000
ASUS43 KLOT 270606
RWRIL

ILLINOIS REGIONAL WEATHER ROUNDUP
NATIONAL WEATHER SERVICE CHICAGO/ROMEOVILLE IL
1200 AM CST FRI FEB 27 2015

NOTE: "FAIR" INDICATES FEW OR NO CLOUDS BELOW 12,000 FEET WITH NO
SIGNIFICANT WEATHER AND/OR OBSTRUCTIONS TO VISIBILITY.

* THESE STATIONS ARE NOT UNDER NWS QUALITY CONTROL. THEY ALSO MAY NOT
  REPORT WEATHER SUCH AS PRECIPITATION OR FOG.

ILZ001-002-007-009-015-016-024-270700-
NORTHWEST ILLINOIS

CITY           SKY/WX    TMP DP  RH WIND       PRES   REMARKS
MOLINE         CLEAR     -1 -10  65 W8        30.51S WCI -15
6HR MIN TEMP:  -1; 6HR MAX TEMP:   9;

STERLING*      CLEAR     -4 -11  71 NW7       30.47S WCI -18
SAVANNA*       CLEAR     -5 -11  78 W3        30.49S
$$

ILZ003-004-008-010-011-017-018-270700-
NORTH CENTRAL ILLINOIS

CITY           SKY/WX    TMP DP  RH WIND       PRES   REMARKS
ROCKFORD       CLEAR     -4 -12  68 CALM      30.46S
6HR MIN TEMP:  -8; 6HR MAX TEMP:  10;

FREEPORT*      CLEAR     -4 -11  70 W3        30.47S
ROCHELLE*      CLEAR    -10 -15  79 CALM      30.45S
DE KALB*       CLEAR     -4 -11  72 NW6       30.42S WCI -17
PERU*          CLEAR      0  -6  74 NW12      30.47S WCI -17
$$

ILZ005-006-012>014-019>023-270700-
NORTHEAST ILLINOIS

CITY           SKY/WX    TMP DP  RH WIND       PRES   REMARKS
CHICAGO-OHARE  PTCLDY     1  -8  66 NW7       30.42R WCI -12
6HR MIN TEMP:   0; 6HR MAX TEMP:  11;

CHICAGO-MIDWAY PTCLDY     7  -4  60 NW7       30.43S WCI  -5
6HR MIN TEMP:   7; 6HR MAX TEMP:  16;

AURORA         CLEAR     -9 -16  71 CALM      30.44S
6HR MIN TEMP: -11; 6HR MAX TEMP:   5;

LANSING*       CLEAR      1  -5  73 W5        30.43R WCI  -8
JOLIET*        CLEAR      1  -7  71 CALM      30.45S
WAUKEGAN       CLEAR     -1  -8  72 W5        30.42R WCI -11
6HR MIN TEMP:  -3; 6HR MAX TEMP:  10;

DUPAGE AIRPORT CLEAR     -2 -11  65 NW7       30.42S WCI -15
6HR MIN TEMP:  -3; 6HR MAX TEMP:  10;

KANKAKEE*      CLEAR     -4  -9  77 W5        30.45R WCI -15
WHEELING       CLEAR      3  -7  63 NW5       30.45R WCI  -6
6HR MIN TEMP:   2; 6HR MAX TEMP:  12;

MORRIS*        CLEAR     -8 -12  81 NW7       30.45S WCI -23
ROMEOVILLE*    CLEAR      1  -6  72 NW5       30.44R WCI  -8
NORTHERLY ISL    N/A     12  -3  51 NW10        N/A  WCI  -1
$$

LMZ740>746-270700-
SOUTHERN LAKE MICHIGAN

STATION/POSITION SKY/WX   TEMP    WIND        PRES    VSBY  WAVE
                          AIR SEA DIR/SP/G                  HT/PER
                          (F)     (DEG/KT/KT) (MB)    (MI)  (FT/S)
WAUKEGAN HARBOR             6     300/  5/  9   N/A
HARRISON CRIB              11     310/ 14/ 16   N/A
BURNHAM HARBOR             12     320/  7/ 11   N/A
CALUMET HARBOR              9     280/  7/ 10 1028.7R
MICHIGAN CITY              12      40/  6/  7   N/A
$$

ILZ025>027-034>036-040-047-049-050-058-095>099-270700-
WEST-CENTRAL ILLINOIS

CITY           SKY/WX    TMP DP  RH WIND       PRES   REMARKS
QUINCY         CLEAR     -3 -11  68 NW7       30.54R WCI -16
GALESBURG*     CLEAR     -5  -9  81 W9        30.50R WCI -21
MACOMB*        CLEAR     -6 -11  79 NW14      30.54S WCI -27
JACKSONVILLE*  CLEAR      1  -6  70 NW7       30.53R WCI -12
PITTSFIELD*    PTCLDY     1  -6  71 NW3       30.54S
$$

ILZ028>032-037-038-041>044-048-051>054-059>061-270700-
CENTRAL ILLINOIS

CITY           SKY/WX    TMP DP  RH WIND       PRES   REMARKS
PONTIAC        CLEAR      2  -3  77 NW6       30.47R WCI  -9
BLOOMINGTON    PTCLDY     7  -1  69 NW9       30.45R WCI  -6
DECATUR        CLOUDY     9   4  80 NW9       30.47R WCI  -4
PEORIA         CLEAR      2  -7  66 NW6       30.50R WCI  -9
6HR MIN TEMP:   2; 6HR MAX TEMP:  13;

LACON*         CLEAR     -1  -8  73 NW6       30.49S WCI -13
LINCOLN*       FAIR       6  -2  70 NW6       30.52S WCI  -5
SPRINGFIELD    CLEAR      3  -5  69 NW10      30.51  WCI -12
6HR MIN TEMP:   3; 6HR MAX TEMP:  16; 6HR PCP: TRACE;

TAYLORVILLE    PTCLDY     5  -2  72 NW10      30.50R WCI -10
$$

ILZ033-039-045-046-055>057-062-063-270700-
EAST-CENTRAL ILLINOIS

CITY           SKY/WX    TMP DP  RH WIND       PRES   REMARKS
CHAMPAIGN      CLOUDY    10   1  67 NW10      30.44R WCI  -4
DANVILLE*      CLOUDY     8   0  70 NW9       30.41R WCI  -6
RANTOUL*       CLOUDY    11   2  68 N9        30.44R WCI  -2
MATTOON        CLOUDY    11   3  70 N10       30.44R WCI  -3
PARIS*         CLOUDY    10   3  75 N5        30.44S WCI   1
$$

ILZ079-100>102-270700-
SOUTHWEST ILLINOIS

CITY           SKY/WX    TMP DP  RH WIND       PRES   REMARKS
ALTON          CLEAR      8  -4  59 NW6       30.54R WCI  -3
CAHOKIA*       CLEAR     11   0  61 N14       30.55R WCI  -5
SPARTA*        FAIR      11   3  68 NW9       30.52R WCI  -1
$$

ILZ064>066-069>071-074>076-080>082-084>086-088>090-092>094-270700-
SOUTH-CENTRAL ILLINOIS

CITY           SKY/WX    TMP DP  RH WIND       PRES   REMARKS
CARBONDALE     FLURRIES  16   7  67 NW14      30.49R WCI   2
6HR MIN TEMP:  16; 6HR MAX TEMP:  23; 6HR PCP: TRACE;

CAIRO*         CLEAR     22  12  66 N8        30.47S WCI  12
EFFINGHAM*     LGT SNOW  14   7  73 NW7       30.49R WCI   4
MARION         CLOUDY    19  10  68 N8        30.48R WCI   9
MT. VERNON     CLOUDY    16   7  67 N5        30.48R WCI   9
CENTRALIA*     LGT SNOW  13   7  76 NW13      30.49R WCI  -2
SALEM*         FLURRIES  15   9  77 NW13      30.49R WCI   0
METROPOLIS*    MOCLDY    20  14  76 N7        30.45R WCI  11
$$

ILZ067-068-072-073-078-083-087-091-270700-
SOUTHEAST ILLINOIS

CITY           SKY/WX    TMP DP  RH WIND       PRES   REMARKS
LAWRENCEVILLE  MOCLDY    13   7  77 N10       30.46R WCI   0
FLORA*         LGT SNOW  15  11  83 N10       30.48R WCI   2
FAIRFIELD*     LGT SNOW  17  13  85 NW6       30.47R WCI   8
HARRISBURG*    FLURRIES  19  15  82 NW10      30.48R WCI   8
ROBINSON*      PTCLDY    10   6  85 N6        30.47S WCI   0
CARMI*         CLOUDY    22  17  81 N10       30.45S WCI  11
$$

ABBREVIATIONS USED IN REMARKS
   TC - TEMPERATURE IN CELSIUS
  WCI - WIND CHILL INDEX
   HX - HEAT INDEX
  VSB - VISIBILITY
$$



USA.gov is the U.S. government's official web portal to all federal, state and local government web resources and services.